This is the latest recevied weather packets stored in our database for station/object DF7ER-12. If no packets are shown the sender has not sent any weather packets the latest 10 day(s).
| Time | Temp. | Humidity | Pressure | Rain* | Wind** | Luminosity | Snow |
|---|---|---|---|---|---|---|---|
| 1788533213 | 22.78° C | 100% | 996.9 hPa | - | - | - | - |
| 1788532894 | 23.33° C | 99% | 996.9 hPa | - | - | - | - |
| 1788532594 | 23.33° C | 100% | 996.9 hPa | - | - | - | - |
| 1788532294 | 23.33° C | 100% | 997 hPa | - | - | - | - |
| 1788531994 | 23.89° C | 100% | 996.6 hPa | - | - | - | - |
| 1788531365 | 23.89° C | 100% | 996.6 hPa | - | - | - | - |
| 1788531065 | 23.89° C | 100% | 996.5 hPa | - | - | - | - |
| 1788530765 | 23.89° C | 100% | 996.3 hPa | - | - | - | - |
| 1788530465 | 23.89° C | 100% | 996.1 hPa | - | - | - | - |
| 1788530165 | 23.89° C | 100% | 996.2 hPa | - | - | - | - |
| 1788529865 | 23.89° C | 100% | 996.4 hPa | - | - | - | - |
| 1788529565 | 23.89° C | 100% | 996.3 hPa | - | - | - | - |
| 1788529265 | 23.33° C | 100% | 996.4 hPa | - | - | - | - |
| 1788528965 | 23.89° C | 100% | 996.3 hPa | - | - | - | - |
| 1788528665 | 23.89° C | 100% | 996 hPa | - | - | - | - |
| 1788528365 | 23.89° C | 99% | 995.9 hPa | - | - | - | - |
| 1788528065 | 23.89° C | 98% | 995.6 hPa | - | - | - | - |
| 1788527765 | 23.89° C | 100% | 995.4 hPa | - | - | - | - |
| 1788527465 | 23.89° C | 100% | 995.4 hPa | - | - | - | - |
| 1788527165 | 23.89° C | 100% | 995.7 hPa | - | - | - | - |
| 1788526865 | 24.44° C | 100% | 995.6 hPa | - | - | - | - |
| 1788526565 | 24.44° C | 100% | 995.6 hPa | - | - | - | - |
| 1788526265 | 23.89° C | 100% | 995.7 hPa | - | - | - | - |
| 1788525965 | 23.89° C | 100% | 995.7 hPa | - | - | - | - |
| 1788525665 | 23.89° C | 100% | 995.6 hPa | - | - | - | - |
* Rain since midnight (hover to see other rain measurements)
** Current wind speed in m/s (hover to see current wind gust speed)